Glendale Luke AFB, AZ

6:44 AM MST on September 19, 2019 (GMT -0700)
Luke Air Force Base

Weather History for KLUF - July, 2019

Change the Weather History Date:

Wednesday, July 10, 2019

  Actual Average Record
Temperature  
Mean Temperature 92 °F -  
Max Temperature 109 °F 108 °F 116 °F (1934)
Min Temperature 76 °F 75 °F 59 °F (1926)
Cooling Degree Days 28    
Growing Degree Days 42 (Base 50)    
Moisture  
Dew Point 38 °F    
Average Humidity 15    
Maximum Humidity 28    
Minimum Humidity 7    
Precipitation  
Precipitation 0.00 in - - ()
Sea Level Pressure  
Sea Level Pressure 29.84 in    
Wind  
Wind Speed 4 mph (SW)    
Max Wind Speed 15 mph    
Max Gust Speed -    
Visibility 10 miles    
Events      
Averages and records for this station are not official NWS values.
T = Trace of Precipitation, MM = Missing Value Source: NWS Daily Summary

Daily Weather History Graph

Daily Weather History Graph

Search for Another Location

Airport or City:

Astronomy

Jul. 10, 2019 Rise Set
Actual Time 5:27 AM MST 7:42 PM MST
Civil Twilight 4:58 AM MST 8:10 PM MST
Nautical Twilight 4:24 AM MST 8:45 PM MST
Astronomical Twilight 3:46 AM MST 9:23 PM MST
Moon 2:03 PM MST (7/10) 12:55 AM MST (7/10)
Length of Visible Light 15h 11m
Length of Day
14h 14m
Waxing Gibbous, 65% of the Moon is Illuminated
Jul 10
Waxing Gibbous
Jul 16
Full
Jul 24
Last Quarter
Jul 31
New
Aug 7
First Quarter

Hourly Weather History & Observations

Time (MST) Temp. Dew Point Humidity Pressure Visibility Wind Dir Wind Speed Gust Speed Precip Events Conditions
12:58 AM 84.0 °F 42.3 °F 23% 29.85 in 10.0 mi Calm Calm - N/A   Clear
1:58 AM 81.5 °F 36.5 °F 20% 29.85 in 10.0 mi NNE 3.5 mph - N/A   Clear
2:58 AM 83.1 °F 33.8 °F 17% 29.85 in 9.0 mi Calm Calm - N/A   Clear
3:58 AM 78.3 °F 40.5 °F 26% 29.85 in 8.0 mi NW 3.5 mph - N/A   Clear
4:58 AM 77.4 °F 41.7 °F 28% 29.87 in 8.0 mi Calm Calm - N/A   Clear
5:58 AM 76.1 °F 39.7 °F 27% 29.89 in 10.0 mi Calm Calm - N/A   Partly Cloudy
7:03 AM 83.8 °F 35.8 °F 18% 29.90 in 10.0 mi North 3.5 mph - N/A   Partly Cloudy
7:58 AM 90.9 °F 36.9 °F 15% 29.91 in 10.0 mi Calm Calm - N/A   Partly Cloudy
8:58 AM 93.4 °F 37.0 °F 14% 29.92 in 10.0 mi South 4.6 mph - N/A   Clear
9:58 AM 95.7 °F 37.0 °F 13% 29.92 in 10.0 mi South 6.9 mph - N/A   Partly Cloudy
10:58 AM 98.8 °F 35.1 °F 11% 29.91 in 10.0 mi SSW 8.1 mph - N/A   Partly Cloudy
11:58 AM 102.6 °F 30.0 °F 8% 29.90 in 10.0 mi WSW 3.5 mph - N/A   Scattered Clouds
12:58 PM 104.2 °F 31.1 °F 8% 29.88 in 10.0 mi South 9.2 mph - N/A   Mostly Cloudy
1:58 PM 106.9 °F 29.8 °F 7% 29.86 in 10.0 mi SW 8.1 mph - N/A   Partly Cloudy
2:58 PM 108.1 °F 30.7 °F 7% 29.83 in 10.0 mi SSW 11.5 mph - N/A   Partly Cloudy
3:56 PM 109.0 °F 34.7 °F 8% 29.80 in 10.0 mi SW 10.4 mph - N/A   Partly Cloudy
4:58 PM 109.4 °F 35.1 °F 8% 29.78 in 10.0 mi SSW 13.8 mph - N/A   Partly Cloudy
5:58 PM 109.0 °F 34.7 °F 8% 29.77 in 10.0 mi SW 15.0 mph - N/A   Partly Cloudy
6:58 PM 106.9 °F 38.8 °F 10% 29.76 in 10.0 mi SW 11.5 mph - N/A   Clear
7:58 PM 101.7 °F 39.6 °F 12% 29.76 in 10.0 mi Calm Calm - N/A   Clear
8:58 PM 96.6 °F 44.6 °F 17% 29.78 in 10.0 mi NNW 3.5 mph - N/A   Clear
9:58 PM 94.1 °F 46.8 °F 20% 29.80 in 10.0 mi SW 4.6 mph - N/A   Partly Cloudy
10:58 PM 94.1 °F 46.8 °F 20% 29.79 in 10.0 mi West 4.6 mph - N/A   Clear
11:58 PM 90.5 °F 43.9 °F 20% 29.79 in 10.0 mi ENE 3.5 mph - N/A   Clear